Location: Taupo
(38.6830°S, 176.0830°E)
Time: 07:13:37
(UTC+13:00)

Cosmos 1763 Rocket - Visible Passes

Search period start: 17 October 2019 00:00
Search period end: 27 October 2019 00:00
Orbit: 732 x 780 km, 74.0° (Epoch: 16 October)

Date Brightness Start Highest point End Pass type
(mag) Time Alt. Az. Time Alt. Az. Time Alt. Az.
17 Oct 4.7 20:15:44 10° SSW 20:20:46 46° WNW 20:25:49 10° N visible
19 Oct 6.2 20:37:41 10° SW 20:41:12 18° W 20:44:45 10° NW visible
22 Oct 6.5 20:18:56 10° WSW 20:21:21 13° W 20:23:47 10° WNW visible
